TimePDT,TemperatureF,Dew PointF,Humidity,Sea Level PressureIn,VisibilityMPH,Wind Direction,Wind SpeedMPH,Gust SpeedMPH,PrecipitationIn,Events,Conditions,WindDirDegrees,DateUTC
12:58 AM,54.7,30.9,40,30.09,10.0,SSW,10.4,-,N/A,,Clear,200,2013-04-27 07:58:00
1:58 AM,52.5,30.7,43,30.09,10.0,South,10.4,-,N/A,,Partly Cloudy,190,2013-04-27 08:58:00
2:58 AM,50.4,30.9,47,30.09,10.0,SSW,10.4,-,N/A,,Clear,200,2013-04-27 09:58:00
3:58 AM,48.2,32.2,54,30.09,10.0,South,12.7,-,N/A,,Scattered Clouds,180,2013-04-27 10:58:00
4:58 AM,48.0,31.1,52,30.09,10.0,South,13.8,-,N/A,,Clear,170,2013-04-27 11:58:00
5:58 AM,47.8,30.0,50,30.07,10.0,SSE,10.4,-,N/A,,Clear,160,2013-04-27 12:58:00
6:58 AM,48.0,31.5,53,30.08,10.0,South,12.7,-,N/A,,Partly Cloudy,170,2013-04-27 13:58:00
7:58 AM,50.4,34.2,54,30.09,10.0,South,16.1,23.0,N/A,,Mostly Cloudy,170,2013-04-27 14:58:00
8:58 AM,52.7,35.4,52,30.08,10.0,South,17.3,-,N/A,,Mostly Cloudy,180,2013-04-27 15:58:00
9:58 AM,55.8,34.5,45,30.06,10.0,South,18.4,25.3,N/A,,Mostly Cloudy,170,2013-04-27 16:58:00
10:58 AM,57.7,34.7,42,30.05,10.0,South,24.2,29.9,N/A,,Overcast,180,2013-04-27 17:58:00
11:58 AM,58.8,32.2,37,30.04,10.0,South,19.6,26.5,N/A,,Overcast,190,2013-04-27 18:58:00
12:58 PM,58.1,32.2,38,30.03,10.0,South,20.7,28.8,N/A,,Overcast,180,2013-04-27 19:58:00
1:58 PM,60.8,34.7,38,30.01,10.0,South,23.0,29.9,N/A,,Overcast,180,2013-04-27 20:58:00
2:58 PM,60.1,34.0,38,30.00,10.0,South,25.3,33.4,N/A,,Mostly Cloudy,180,2013-04-27 21:58:00
3:58 PM,64.6,35.2,34,29.97,10.0,South,25.3,33.4,N/A,,Clear,170,2013-04-27 22:58:00
4:58 PM,64.6,30.6,28,29.96,10.0,SSW,27.6,36.8,N/A,,Partly Cloudy,200,2013-04-27 23:58:00
5:58 PM,61.0,32.7,35,29.98,10.0,SSW,23.0,29.9,N/A,,Scattered Clouds,210,2013-04-28 00:58:00
6:58 PM,58.1,34.7,41,29.98,10.0,SSW,16.1,24.2,N/A,,Scattered Clouds,200,2013-04-28 01:58:00
7:58 PM,55.2,36.1,49,29.99,10.0,SSW,20.7,-,N/A,,Mostly Cloudy,200,2013-04-28 02:58:00
8:58 PM,52.5,37.0,56,30.00,10.0,SSW,13.8,25.3,N/A,,Partly Cloudy,210,2013-04-28 03:58:00
9:58 PM,50.7,37.4,60,30.02,10.0,SSW,16.1,-,N/A,,Clear,200,2013-04-28 04:58:00
10:58 PM,49.3,37.6,64,30.02,10.0,SSW,12.7,-,N/A,,Clear,200,2013-04-28 05:58:00
11:58 PM,48.4,37.4,66,30.02,10.0,SSW,13.8,-,N/A,,Clear,200,2013-04-28 06:58:00